Regional Weather Roundup
Issued by NWS Kansas City/Pleasant Hill, MO

Home | Current Version | Previous Version | Graphics & Text | Print | Product List | Glossary Off
Versions: 1 2 3 4 5 6 7 8 9 10 11 12 13 14 15 16 17 18 19 20 21 22 23 24 25 26 27 28 29 30 31 32 33 34 35 36 37 38 39 40 41 42 43 44 45 46 47 48 49 50

000
ASUS43 KEAX 020504
RWREAX

WEATHER ROUNDUP FOR EASTERN KANSAS AND NORTHWEST MISSOURI
NATIONAL WEATHER SERVICE KANSAS CITY/PLEASANT HILL MO
1200 AM CDT TUE SEP 02 2014

KSZ040-057-103>105-MOZ028-029-037-043-020600-
...KANSAS CITY METROPOLITAN AREA...

CITY           SKY/WX    TMP DP  RH WIND       PRES   REMARKS
K.C. INTL      CLOUDY    70  69  97 SE5       29.90R
K.C. DOWNTOWN  CLOUDY    73  70  90 S7        29.89S
LEES SUMMIT    CLOUDY    71  69  93 E3        29.91F
OLATHE - IXD   CLOUDY    70  69  97 SE5       29.91S
OLATHE - OJC   CLOUDY    69  69 100 SE3       29.90R
LAWRENCE       CLOUDY   N/A N/A N/A CALM      29.89F

$$

MOZ001>008-011>017-020>025-030>033-038>040-044>046-053-054-020600-
...NORTHERN AND CENTRAL MISSOURI...

CITY           SKY/WX    TMP DP  RH WIND       PRES   REMARKS
ST. JOSEPH     MOCLDY    65  64  97 CALM      29.89R
MOSBY          CLOUDY    70  70 100 SE5       29.90R
WHITEMAN AFB   TSTM      69  67  92 SE5       29.92F
CLINTON        CLOUDY    72  72 100 E3        29.92F
SEDALIA        TSTM      72  70  93 SE6       29.94S FOG
WARSAW         NOT AVBL
MARSHALL       CLOUDY    73  73 100 SW8       29.95R
CHILLICOTHE      N/A     70  66  87 CALM      29.89S
MOBERLY        CLOUDY    72  68  88 SE3       29.89F
KIRKSVILLE     CLOUDY    68  66  93 SE3       29.89F

$$

MOZ041-047>049-056>058-063>065-088>090-097-020600-
...EASTERN AND SOUTHERN MISSOURI...

CITY           SKY/WX    TMP DP  RH WIND       PRES   REMARKS
ST. LOUIS INTL TSTM      70  67  90 E8        29.89F
SPIRIT OF STL  LGT RAIN  68  66  94 E5        29.92R FOG
COLUMBIA       LGT RAIN  71  70  96 W6        29.94R
JEFFERSON CITY LGT RAIN  71  69  93 SW7       29.94R
MEXICO         TSTM     N/A N/A N/A CALM      29.93R
ROLLA          LGT RAIN  72  69  90 W8        29.95R
LEBANON        TSTM      72  70  94 S3        29.96F
OSAGE BEACH    CLOUDY    72  68  88 NW3       29.95R
SPRINGFIELD    RAIN      77  72  84 S12       29.96R
BRANSON        CLOUDY    75  70  83 CALM      30.00R
JOPLIN         TSTM      71  66  84 S18G32    29.91F
WEST PLAINS    CLOUDY    78  70  76 S9        29.98S

$$

IAZ060-094-KSZ022-034>040-054-083-096-NEZ052-066-093-020600-
...KANSAS...SOUTHEAST NEBRASKA AND IOWA...

CITY           SKY/WX    TMP DP  RH WIND       PRES   REMARKS
TOPEKA         CLOUDY    72  71  97 SE5       29.88F
MANHATTAN      MOCLDY    69  67  93 CALM      29.88F
EMPORIA        CLOUDY    70  68  93 E7        29.90S
CHANUTE        LGT RAIN  73  71  93 SE10      29.88F
WICHITA        MOCLDY    74  68  81 NE8       29.88S
OMAHA          PTCLDY    64  62  93 NW5       29.95R
LINCOLN        CLEAR     67  60  78 NW14G23   29.97R
FALLS CITY     PTCLDY    64  63  96 NW3       29.91R
LAMONI         PTCLDY    66  64  93 CALM      29.91R
DES MOINES     PTCLDY    67  63  87 S8        29.89R

$$




USA.gov is the U.S. government's official web portal to all federal, state and local government web resources and services.